Home > Weather > Cruzeiro do Sul > Past weeks

Flag for Brazil Weather for the Past 2 Weeks in Cruzeiro do Sul, Acre, Brazil

Now
75 °F

Clear.


Feels Like: 73 °F
Forecast: 73 / 90 °F
Wind: No wind

Location: Cruzeiro Do Sul Airport

Current Time: Feb 9, 2016 at 3:45:21 AM

Latest Report: Feb 8, 2016 at 11:45 PM


Visibility: 10 mi

Pressure: 29.89 "Hg

Humidity: 100%

Dew point: 75 °F

Location of Cruzeiro do SulLocation

Historic Weather in Cruzeiro do Sul — Graph

°F

Cruzeiro do Sul Temperature Yesterday

Maximum temperature yesterday: 86 °F (at 4:00 PM)
Minimum temperature yesterday: 75 °F (at 11:45 PM)
Average temperature yesterday: 80 °F

High & Low Weather Summary for the Past Weeks

 TemperatureHumidityPressure
High93 °F (Jan 25, 12:00 PM)100% (Jan 25, 11:00 PM)29.98 "Hg (Jan 25, 11:00 PM)
Low75 °F (Jan 26, 11:00 PM)21% (Feb 5, 7:00 PM)29.68 "Hg (Jan 31, 4:00 PM)
Average82 °F82%29.85 "Hg
* Reported Jan 24 11:00 PM — Feb 8 11:45 PM, Cruzeiro do Sul, Weather by CustomWeather, © 2016

Note: Actual official high and low records may vary slightly from our data, if they occured in-between our weather recording intervals... More about our weather records

Advertising

Cruzeiro do Sul Weather History for the Previous 24 Hours

 ConditionsComfort  
Time TempWeatherWind HumidityBarometerVisibility
11:45 PM
Mon, Feb 8
75 °FClear.No wind100%29.89 "Hg10 mi
11:00 PM77 °FClear.No wind94%29.92 "Hg10 mi
10:00 PM77 °FClear.No wind94%29.89 "Hg10 mi
9:00 PM77 °FClear.No wind94%29.89 "Hg10 mi
8:00 PM77 °FClear.No wind100%29.83 "Hg10 mi
7:00 PM79 °FScattered clouds.No wind94%29.83 "HgN/A
6:00 PM82 °FPartly sunny.5 mph79%29.80 "HgN/A
5:00 PM86 °FPartly sunny.3 mph66%29.77 "HgN/A
4:00 PM86 °FPartly sunny.3 mph70%29.77 "HgN/A
3:00 PM84 °FPartly sunny.6 mph74%29.83 "HgN/A
2:00 PM82 °FPartly sunny.5 mph79%29.86 "HgN/A
1:00 PM81 °FMostly cloudy.6 mph84%29.92 "HgN/A
12:00 PM82 °FMostly cloudy.6 mph79%29.95 "HgN/A
11:00 AM79 °FOvercast.9 mph89%29.98 "HgN/A
10:00 AM81 °FMostly cloudy.12 mph79%29.98 "HgN/A
9:00 AM79 °FMore clouds than sun.14 mph84%29.98 "HgN/A
8:00 AM79 °FBroken clouds.2 mph89%29.98 "HgN/A
Weather by CustomWeather, © 2016

See weather overviewHow to use our weather pages